KF6KYD-WX Weather Reports


Display with metric or nautical units.
time (UTC)temp
F
wind
direction
speed
MPH
gust
MPH
rain 1hr
in
rain 24hr
in
rain mn
in
humidity
%
barometer
mb
20260831180829 89 147 1.0 3.0 0.00 0.00 0.00 70
20260831180259 88 137 1.0 2.0 0.00 0.00 0.00 73
20260831175729 87 143 2.0 4.0 0.00 0.00 0.00 74
20260831175159 87 148 2.0 4.0 0.00 0.00 0.00 75
20260831174629 87 143 2.0 4.0 0.00 0.00 0.00 76
20260831174059 86 146 1.0 3.0 0.00 0.00 0.00 77
20260831173529 86 157 1.0 3.0 0.00 0.00 0.00 78
20260831172959 86 160 1.0 4.0 0.00 0.00 0.00 80
20260831172459 86 157 2.0 4.0 0.00 0.00 0.00 78
20260831171959 86 141 1.0 3.0 0.00 0.00 0.00 76
20260831171429 86 138 1.0 3.0 0.00 0.00 0.00 75
20260831170859 86 142 1.0 3.0 0.00 0.00 0.00 76
20260831170359 87 152 1.0 2.0 0.00 0.00 0.00 75
20260831165829 87 160 1.0 2.0 0.00 0.00 0.00 73
20260831165259 87 144 1.0 2.0 0.00 0.00 0.00 73
20260831164759 87 152 1.0 3.0 0.00 0.00 0.00 72
20260831164229 87 162 1.0 3.0 0.00 0.00 0.00 73
20260831163729 87 161 1.0 2.0 0.00 0.00 0.00 73
20260831163159 87 147 1.0 2.0 0.00 0.00 0.00 73
20260831162659 87 139 1.0 2.0 0.00 0.00 0.00 72
20260831162129 87 148 0.0 2.0 0.00 0.00 0.00 72
20260831161559 88 117 0.0 2.0 0.00 0.00 0.00 71
20260831161059 88 118 1.0 3.0 0.00 0.00 0.00 70
20260831160559 88 130 1.0 3.0 0.00 0.00 0.00 70
20260831160029 87 114 1.0 2.0 0.00 0.00 0.00 71
20260831155459 87 118 0.0 2.0 0.00 0.00 0.00 72
20260831154959 87 103 1.0 2.0 0.00 0.00 0.00 73
20260831154459 87 100 1.0 2.0 0.00 0.00 0.00 72
20260831153959 87 144 1.0 2.0 0.00 0.00 0.00 73
20260831153429 86 140 1.0 2.0 0.00 0.00 0.00 74
20260831152859 86 137 0.0 2.0 0.00 0.00 0.00 73
20260831152359 85 128 1.0 2.0 0.00 0.00 0.00 76
20260831151859 85 142 1.0 2.0 0.00 0.00 0.00 78
20260831151329 85 151 1.0 2.0 0.00 0.00 0.00 79
20260831150759 85 150 0.0 2.0 0.00 0.00 0.00 79
20260831150229 85 151 0.0 2.0 0.00 0.00 0.00 79
20260831145659 85 152 0.0 2.0 0.00 0.00 0.00 81
20260831145129 85 137 0.0 2.0 0.00 0.00 0.00 81
20260831144629 84 106 0.0 2.0 0.00 0.00 0.00 82
20260831144059 84 125 0.0 2.0 0.00 0.00 0.00 83
20260831143529 84 116 1.0 3.0 0.00 0.00 0.00 83
20260831142959 83 144 1.0 3.0 0.00 0.00 0.00 84
20260831142459 82 171 1.0 2.0 0.00 0.00 0.00 85
20260831141959 82 144 1.0 2.0 0.00 0.00 0.00 87
20260831141459 82 149 1.0 2.0 0.00 0.00 0.00 88
20260831140929 81 147 1.0 3.0 0.00 0.00 0.00 88
20260831140429 81 135 1.0 3.0 0.00 0.00 0.00 91
20260831135859 80 136 1.0 2.0 0.00 0.00 0.00 94
20260831135329 79 160 1.0 2.0 0.00 0.00 0.00 96
20260831134829 78 159 1.0 2.0 0.00 0.00 0.00 97